TIME,DELAY(SENSOR),PRES,OXYGEN,RAWTEMP,T(OPTODE),TCPHASE,FLUOR,BETA(BETA700),BETA(BETA412),BETA(BETA440),CDOM,C(CSC),ED(ED412.20),ED(ED444.00),ED(ED489.60),ED(ED554.30),LU(LU412.10),LU(LU443.90),LU(LU489.70),LU(LU554.70),COMP,TILTX,TILTY,CHECK
1355280852,5810,889.7899780273438000,33.7723503112793000,562.0086059570312000,4.4236278533935550,56.4955101013183600,55,99,100,78,82,15551,0,0,0,0,2147122587,2147774308,2147570148,2147569883,3293,3,13,49995
1355284448,5809,963.3900146484375000,40.1954383850097660,567.9102783203125000,4.2404799461364750,55.5621910095214840,55,99,101,78,83,15552,0,0,0,0,2147121938,2147771949,2147572141,2147567076,290,3,13,16917
1355288048,5809,972.8800048828125000,40.4088706970214840,568.7561035156250000,4.2142090797424320,55.5402107238769500,55,97,100,77,82,15552,0,0,0,0,2147120676,2147772946,2147566765,2147571218,157,3,13,59228
1355291648,5809,978.1599731445312000,40.3757896423339840,569.5645141601562000,4.1890950202941895,55.5504798889160160,55,99,99,79,81,15548,0,0,0,0,2147124041,2147775049,2147567488,2147569938,3089,3,13,45858
1355295248,5811,977.8699951171875000,40.6123504638671900,570.1204223632812000,4.1718201637268070,55.5256996154785160,55,101,100,78,81,15548,0,0,0,0,2147124041,2147773741,2147572406,2147568512,226,3,13,23638
1355298848,5810,989.0200195312500000,40.3297309875488300,569.8275146484375000,4.1809229850769040,55.5653190612793000,56,97,101,78,81,15546,0,0,0,0,2147126153,2147776365,2147570368,2147567296,3536,3,13,20517
1355302448,5811,990.7700195312500000,40.2034492492675800,569.7678833007812000,4.1827721595764160,55.5830802917480500,56,99,100,78,82,15547,0,0,0,0,2147121344,2147772891,2147569261,2147571236,94,3,13,50301
1355306048,5810,987.0499877929688000,40.1882896423339840,570.1837158203125000,4.1698532104492190,55.5866203308105500,54,99,101,81,83,15544,0,0,0,0,2147119469,2147766976,2147572873,2147569892,571,3,13,50497
1355309648,5809,984.4400024414062000,40.2270584106445300,570.1638183593750000,4.1704711914062500,55.5850410461425800,55,96,100,78,82,15547,0,0,0,0,2147121682,2147774445,2147571648,2147567917,3307,3,13,47299
1355313248,5808,986.3699951171875000,40.3420906066894500,570.0698242187500000,4.1733927726745605,55.5690803527832000,55,97,100,78,81,15542,0,0,0,0,2147124928,2147775241,2147571812,2147570194,3170,3,13,36815
1355316848,5810,987.7500000000000000,40.6812286376953100,570.9605712890625000,4.1457061767578125,55.5264701843261700,55,98,101,78,81,15543,0,0,0,0,2147122761,2147774317,2147577316,2147569353,878,3,13,5551
1355320448,5809,992.5599975585938000,40.3747291564941400,570.7506713867188000,4.1522288322448730,55.5697593688964840,54,101,100,77,84,15541,0,0,0,0,2147125101,2147772022,2147576877,2147570852,201,3,13,22369
1355324048,5809,994.2100219726562000,40.0483589172363300,570.3994140625000000,4.1631469726562500,55.6133499145507800,55,97,100,79,83,15544,0,0,0,0,2147122313,2147777005,2147573394,2147569654,445,3,13,25378
1355327648,5811,996.9799804687500000,39.8598403930664060,570.2631225585938000,4.1673831939697270,55.6396903991699200,55,99,101,77,83,15541,0,0,0,0,2147124388,2147773796,2147575122,2147569609,446,3,13,42314
1355331248,5808,997.0599975585938000,39.8247718811035160,569.7994995117188000,4.1817908287048340,55.6398887634277340,55,100,101,78,82,15541,0,0,0,0,2147125869,2147777892,2147577042,2147571401,95,3,13,46042
1355334848,5811,993.7500000000000000,40.0042495727539060,570.5441894531250000,4.1586489677429200,55.6182289123535160,55,98,99,78,83,15539,0,0,0,0,2147122276,2147774838,2147578203,2147569764,234,3,13,31720
1355338448,5810,991.7600097656250000,39.9804191589355500,570.7260742187500000,4.1529941558837890,55.6244697570800800,55,99,100,78,83,15541,0,0,0,0,2147121536,2147773860,2147574756,2147568338,129,3,13,16047
1355342048,5810,991.1599731445312000,40.5455818176269500,570.7199707031250000,4.1531829833984375,55.5444183349609400,54,98,100,77,82,15539,0,0,0,0,2147121828,2147777563,2147575168,2147568594,119,3,13,29760
1355345648,5809,993.3499755859375000,40.3604393005371100,570.5374145507812000,4.1588587760925290,55.5649909973144500,54,102,100,78,82,15535,0,0,0,0,2147123977,2147775890,2147574966,2147569152,304,3,13,23644
1355349248,5809,997.9899902343750000,40.1440505981445300,570.7644042968750000,4.1518039703369140,55.6004905700683600,54,97,101,78,83,15511,0,0,0,0,2147122395,2147775012,2147573275,2147570715,3456,3,13,11090
1355352848,5810,991.9000244140625000,40.1978187561035160,570.8787841796875000,4.1482491493225100,55.5953788757324200,55,97,100,78,81,15511,0,0,0,0,2147123547,2147772608,2147569947,2147565074,3482,3,13,14539
1355356448,5808,994.6500244140625000,41.0813598632812500,571.4260864257812000,4.1312351226806640,55.4714698791503900,55,98,101,77,83,15511,0,0,0,0,2147122249,2147776804,2147577590,2147569691,407,3,13,39479
1355360048,5810,998.4199829101562000,40.5607490539550800,570.8822021484375000,4.1481437683105470,55.5416908264160160,55,99,100,78,81,15512,0,0,0,0,2147121499,2147772224,2147572388,2147567067,12,3,13,22245
1355363648,5809,988.0700073242188000,41.0905609130859400,571.5640869140625000,4.1269440650939940,55.4716796875000000,55,99,101,79,83,15506,0,0,0,0,2147123364,2147772580,2147571958,2147568146,612,3,13,45321
1355367248,5808,995.1099853515625000,41.6871910095214840,572.0090942382812000,4.1131100654602050,55.3899116516113300,55,99,101,78,82,15508,0,0,0,0,2147122724,2147771648,2147572333,2147570020,588,3,13,715
1355370848,5810,1000.0599975585938000,40.8897018432617200,571.0911254882812000,4.1416487693786620,55.4930801391601560,54,99,100,77,82,15507,0,0,0,0,2147123702,2147767835,2147574820,2147569024,54,3,13,62374
1355374448,5808,995.6500244140625000,40.9380111694335940,571.3037719726562000,4.1350359916687010,55.4899215698242200,54,99,101,78,84,15508,0,0,0,0,2147121344,2147773211,2147575744,2147568740,421,3,13,64085
1355378048,5810,997.8900146484375000,40.9590492248535160,571.2028198242188000,4.1381759643554690,55.4889183044433600,55,102,99,78,83,15506,0,0,0,0,2147120932,2147773120,2147571840,2147571501,380,3,13,53958
1355381648,5812,995.2999877929688000,40.8299407958984400,571.6671142578125000,4.1237449645996090,55.5065307617187500,55,98,100,79,82,15505,0,0,0,0,2147121334,2147772745,2147573577,2147571638,195,3,13,58628
1355385248,5808,992.8499755859375000,40.9702186584472660,571.6995849609375000,4.1227340698242190,55.4900207519531250,55,100,100,78,82,15506,0,0,0,0,2147123830,2147773604,2147575222,2147567131,3459,3,13,18346
1355388848,5807,997.9299926757812000,40.8761596679687500,571.4229125976562000,4.1313362121582030,55.4988594055175800,55,98,102,77,82,15500,0,0,0,0,2147122971,2147769033,2147574482,2147567981,3532,3,13,26755
1355392448,5809,1001.5900268554688000,40.2716903686523440,570.4868774414062000,4.1604290008544920,55.5786514282226560,54,98,100,78,82,15502,0,0,0,0,2147119981,2147767890,2147574491,2147571803,264,3,13,2628
1355396048,5809,1004.5300292968750000,40.4317016601562500,570.5137939453125000,4.1595940589904785,55.5602111816406250,55,99,101,78,82,15502,0,0,0,0,2147120850,2147772022,2147574390,2147569691,619,3,13,215
1355399648,5807,1001.7999877929688000,40.3825683593750000,570.5068969726562000,4.1598091125488280,55.5644493103027340,55,98,100,78,82,15503,0,0,0,0,2147123108,2147774034,2147574034,2147570806,591,3,13,48078
1355403248,5809,996.8300170898438000,40.3918800354003900,571.1262207031250000,4.1405577659606930,55.5656700134277340,55,98,101,78,83,15502,0,0,0,0,2147121974,2147777590,2147570752,2147571245,3403,3,13,63610
1355406848,5809,997.7700195312500000,40.3608398437500000,571.7982788085938000,4.1196627616882320,55.5848693847656250,54,98,100,78,82,15498,0,0,0,0,2147122560,2147773970,2147572114,2147572379,137,3,13,23055
1355410448,5811,998.8200073242188000,41.0816383361816400,571.8430786132812000,4.1182708740234375,55.4771194458007800,54,98,100,78,82,15501,0,0,0,0,2147123081,2147773833,2147571876,2147570002,3374,2,13,32601
1355414048,5808,999.9400024414062000,41.0587387084960940,571.3859252929688000,4.1324839591979980,55.4701499938964840,55,101,99,80,82,15501,0,0,0,0,2147122358,2147775808,2147575186,2147569005,3127,2,13,55728
1355417648,5808,1001.9799804687500000,40.4834594726562500,571.0565795898438000,4.1427230834960940,55.5582389831543000,55,98,102,80,82,15500,0,0,0,0,2147121929,2147777353,2147573293,2147569142,126,3,13,3400
1355421248,5808,999.2199707031250000,39.9236984252929700,570.6251831054688000,4.1561298370361330,55.6338005065918000,55,99,101,78,82,15500,0,0,0,0,2147122971,2147775387,2147571373,2147567954,388,3,13,58220
1355424848,5807,994.9099731445312000,40.3088188171386700,571.1265258789062000,4.1405491828918460,55.5805091857910160,55,98,100,78,81,15498,0,0,0,0,2147122285,2147771675,2147572873,2147569938,459,3,13,61976
1355426156,5812,995.5499877929688000,40.4986381530761700,571.8275146484375000,4.1187567710876465,55.5640296936035160,55,99,99,79,82,15501,0,0,0,0,2147126217,2147772169,2147577398,2147570276,3526,2,13,55901
